Theta_e
341 343 342 339 339 344 343 343 342 341 341 341 341 341 340 340 339 340 339 339 337 336 336 335 335 332 333 333 333 333 333 333 333 333 333 334 334 334 336 337 337 336 337
341 343 342 340 340 337 340 341 339 339 339 341 341 340 340 339 340 339 338 336 334 332 329 326 324 322 320 319 320 321 322 324 326 328 330 331 333 334 338 337 337 337 336
341 342 342 341 340 340 339 339 338 338 337 340 339 340 338 337 335 333 331 327 323 318 319 317 311 308 307 307 307 307 307 307 308 310 315 323 328 331 334 335 338 337 335
340 341 341 341 340 338 338 338 337 336 337 337 337 336 334 333 331 326 318 312 312 314 313 310 307 305 305 305 305 305 306 306 306 307 307 308 314 321 327 335 336 337 337
340 340 339 339 339 338 337 336 336 334 334 335 334 331 329 324 316 309 309 310 314 317 317 316 312 307 305 305 305 305 305 305 307 308 308 308 309 324 332 334 332 334 337
339 338 337 338 338 337 335 334 333 332 332 329 327 324 317 313 311 309 309 314 318 318 317 317 311 308 305 305 305 305 307 307 308 311 314 317 323 327 327 325 327 331 334
337 336 336 336 336 335 334 332 330 330 326 323 318 317 314 311 311 312 311 312 315 315 316 314 309 308 308 307 306 305 305 306 307 309 314 316 321 324 324 322 329 333 335
336 335 335 334 334 333 331 329 328 325 320 319 318 317 317 314 312 310 312 313 314 312 308 306 306 305 306 306 306 305 305 305 305 307 311 313 318 321 322 321 320 326 330
334 333 333 332 332 330 329 327 323 321 319 318 316 312 311 311 312 315 315 314 312 312 309 306 303 302 302 304 304 304 304 305 304 305 306 310 315 317 319 319 319 319 320
332 332 331 331 330 327 325 322 320 318 316 313 312 309 309 312 310 311 310 310 308 305 302 302 301 301 301 302 303 303 303 303 303 304 304 308 314 316 317 317 317 317 317
330 330 330 329 326 325 321 320 319 317 314 312 312 308 306 306 307 308 304 303 302 301 301 301 300 300 301 301 302 302 302 302 302 303 303 306 314 315 315 315 316 316 317
326 327 327 325 323 320 317 317 316 315 314 311 307 307 306 306 306 304 303 301 300 300 300 300 299 299 300 300 301 301 301 301 302 303 303 305 311 315 316 317 317 316 316
324 324 324 323 320 316 313 314 314 312 312 310 306 306 306 306 305 303 302 301 300 300 299 299 299 299 299 300 300 300 300 302 303 306 312 312 315 317 316 315 314 314 314
321 321 322 321 317 313 313 312 312 311 310 308 307 306 306 305 304 302 301 300 299 299 299 298 298 299 299 299 299 300 302 304 306 308 310 311 313 313 313 312 312 313 314
320 319 322 319 315 311 312 311 309 308 307 307 306 305 305 304 303 302 300 299 299 299 298 297 298 298 298 298 300 303 304 305 305 306 307 307 308 310 312 313 312 312 311
319 319 320 318 312 309 311 310 308 307 307 306 305 304 304 303 302 301 299 299 299 298 297 296 297 297 296 299 303 304 304 303 303 303 303 303 304 306 307 307 307 308 309
319 318 319 315 309 310 310 307 306 305 305 305 304 303 302 302 301 300 298 298 298 297 296 296 296 295 296 301 302 302 302 301 301 300 300 301 301 302 302 301 303 303 304
319 317 316 313 307 310 310 307 306 304 304 304 302 301 301 301 300 298 298 298 297 296 295 295 294 294 298 300 300 299 297 297 296 297 297 299 299 298 297 297 297 298 300
318 317 315 311 307 310 309 307 305 303 302 301 300 300 300 299 298 297 297 297 296 295 294 294 293 294 298 298 297 295 294 294 295 296 297 297 296 295 295 294 294 295 297
317 317 315 313 309 310 309 307 304 302 300 299 298 299 299 298 297 297 296 296 295 294 293 293 292 293 297 297 295 294 292 292 295 296 296 295 294 293 292 291 291 293 294
315 315 314 314 310 310 307 304 302 300 299 298 297 298 298 297 296 296 296 295 294 293 293 292 292 293 295 295 296 294 292 290 293 295 295 294 293 291 290 289 288 291 292
314 314 313 312 311 309 307 304 302 301 299 298 296 297 297 296 296 295 295 294 293 293 292 292 292 291 290 294 292 292 291 292 290 291 292 290 291 290 289 288 287 289 291
314 313 311 310 309 306 305 303 302 300 298 296 295 295 295 295 295 294 294 294 293 292 292 291 291 291 291 290 291 291 289 290 288 288 289 290 289 289 289 288 286 287 290
313 313 311 308 307 306 304 302 302 299 297 295 295 294 294 294 294 294 294 293 292 292 291 291 291 291 291 290 290 289 289 289 288 288 288 288 288 288 288 287 287 283 288
313 313 311 307 305 303 302 304 303 299 298 298 294 294 293 293 293 293 293 292 291 291 290 290 290 290 290 290 290 289 289 288 288 287 287 287 287 287 287 286 286 282 286
312 312 310 307 305 302 302 303 303 300 298 296 293 293 292 292 292 292 292 291 290 290 290 290 289 289 289 289 289 289 288 288 287 286 286 285 286 286 286 286 285 281 283
Wind_Speed
21 24 22 21 21 22 21 21 22 21 22 22 23 23 24 24 24 23 21 19 17 15 14 12 10 9 8 6 6 6 6 6 7 7 8 8 9 9 9 10 11 11 5
26 25 23 22 21 20 19 21 21 20 20 21 21 21 22 22 21 21 19 17 15 14 12 11 9 7 6 6 6 6 6 7 7 7 7 7 7 7 9 11 10 5 3
25 23 22 21 21 20 21 21 21 20 20 20 21 20 20 19 18 17 15 14 13 13 12 11 9 7 7 6 7 6 6 6 7 8 8 7 7 6 8 10 7 5 5
25 25 25 23 19 16 15 16 18 19 19 19 19 17 16 15 14 13 13 12 12 12 11 10 9 8 7 7 7 8 9 9 9 9 8 8 7 8 11 10 6 4 6
24 24 22 20 21 20 18 17 17 18 19 19 18 16 15 14 14 13 12 12 13 13 14 13 12 11 10 10 10 10 11 11 12 12 10 10 10 12 12 13 8 5 5
24 22 19 20 20 18 17 16 18 18 19 18 17 16 16 15 14 14 14 15 15 16 16 15 14 13 12 12 12 12 13 13 13 13 13 14 15 13 14 10 7 4 3
26 24 20 19 19 19 19 18 18 18 18 18 17 16 16 15 15 15 15 16 16 17 16 16 14 14 14 14 13 13 13 13 12 12 12 13 16 14 14 12 9 6 3
28 27 24 20 19 19 19 19 18 18 18 18 18 17 16 16 17 16 16 16 16 15 14 13 13 13 13 14 14 14 14 13 12 11 10 11 14 14 15 16 12 10 8
25 27 26 25 24 23 22 20 20 19 19 18 18 17 16 17 18 18 17 16 15 15 14 13 11 11 12 11 11 13 13 13 12 11 10 9 14 13 13 15 16 16 13
25 26 27 27 28 27 24 22 21 20 19 19 19 18 18 18 17 16 15 15 14 13 11 9 9 10 10 10 11 12 12 11 10 10 10 12 12 12 13 14 15 16 17
27 27 27 28 24 25 23 20 20 21 20 20 20 19 18 16 16 14 14 13 12 11 10 10 10 10 10 10 11 11 11 11 10 10 9 10 13 12 12 13 13 14 15
30 30 30 30 27 24 22 21 21 22 22 20 19 19 18 16 15 14 13 12 11 11 10 11 11 10 9 9 9 10 10 11 10 12 12 11 11 12 12 13 14 15 15
25 30 30 30 28 26 26 24 23 20 21 19 18 18 18 17 15 13 12 11 9 9 9 9 8 8 8 9 10 11 10 11 12 15 19 17 14 13 13 13 14 14 14
26 28 31 30 28 28 27 27 24 22 22 21 19 18 18 17 15 13 11 10 9 10 9 7 7 8 9 11 11 10 11 12 14 16 19 18 19 16 14 14 14 14 15
26 30 35 30 29 29 28 26 23 23 22 22 20 18 16 16 15 13 11 10 9 8 7 7 8 9 8 8 9 10 13 14 15 14 14 13 16 18 16 16 16 15 14
31 36 38 34 32 30 29 27 24 22 22 21 20 18 17 16 14 12 12 10 9 7 7 7 8 8 7 8 10 12 14 14 14 14 14 13 13 18 17 18 17 16 15
32 35 40 37 34 32 30 28 26 24 23 22 20 19 18 16 14 13 12 11 9 7 6 8 8 8 8 11 14 14 13 13 13 13 13 13 12 17 18 17 18 18 17
32 36 39 39 39 35 32 28 26 24 22 21 20 20 18 16 13 13 13 11 10 7 7 8 10 11 13 14 16 15 14 13 14 13 13 13 14 14 14 17 17 18 18
33 36 39 39 41 36 33 29 26 24 22 21 20 19 18 16 14 12 12 11 10 9 8 10 11 12 16 18 19 17 17 17 16 15 16 15 16 16 17 17 17 18 19
34 37 39 40 40 36 36 32 27 24 23 22 20 20 19 17 15 13 12 11 10 10 11 11 13 15 18 18 19 18 18 17 16 16 16 14 14 16 18 20 21 20 19
34 38 41 43 43 40 38 37 31 29 25 23 21 20 19 17 15 14 13 11 11 11 12 11 14 16 18 18 12 10 13 16 17 16 14 13 14 16 18 21 23 19 20
35 38 42 44 46 44 43 36 28 32 26 24 21 20 19 17 15 14 13 12 11 11 11 9 9 12 12 10 4 4 2 2 10 14 14 15 14 12 16 20 22 19 18
37 42 44 45 47 42 40 37 30 29 25 22 22 22 20 17 16 14 13 12 11 9 10 9 7 7 10 9 4 3 2 3 3 5 10 10 11 14 14 17 22 18 14
38 37 40 42 47 49 46 34 39 28 21 16 28 24 20 16 16 15 15 13 12 11 9 9 7 7 8 12 10 11 8 5 2 2 3 5 8 12 13 15 18 20 12
37 41 41 41 42 39 44 46 43 31 28 27 26 24 22 19 17 16 15 14 13 12 11 10 9 8 6 7 6 6 7 9 8 3 2 2 4 7 9 13 17 22 14
29 34 40 43 42 41 45 47 42 37 35 35 33 30 27 23 20 18 16 15 13 12 11 12 11 9 9 9 8 7 5 4 3 3 2 1 1 2 4 9 17 22 15
Wind_Direction
165 158 158 154 150 140 138 130 125 126 126 123 122 122 123 123 122 117 112 107 103 99 91 88 77 70 66 61 56 44 36 30 29 27 18 16 7 4 1 348 326 312 322
159 157 156 157 152 148 139 128 126 127 124 124 124 125 123 122 119 116 112 109 108 99 94 89 83 75 66 55 45 36 24 14 14 14 8 9 10 11 359 353 352 357 11
156 153 154 154 149 145 138 137 138 133 132 130 128 127 125 123 122 117 114 110 107 103 96 90 80 68 59 48 42 36 29 21 15 10 358 355 358 8 1 0 12 20 2
151 149 149 147 145 150 155 148 143 140 136 132 130 130 129 129 125 119 114 110 103 97 90 79 69 60 53 45 35 28 20 23 20 10 355 352 359 9 13 353 355 350 336
155 154 155 158 155 156 163 160 155 145 138 133 132 133 131 128 124 119 113 103 94 87 81 75 71 63 55 48 38 30 26 29 30 27 23 24 32 36 28 14 357 330 326
155 157 162 162 163 161 163 161 155 145 135 135 130 130 127 122 117 115 110 100 90 84 79 72 65 59 52 48 43 40 41 40 39 41 49 56 57 43 38 19 16 359 319
156 158 163 166 166 171 171 164 154 143 139 135 131 129 126 124 116 106 103 97 89 83 79 75 67 58 53 48 43 42 39 37 36 39 48 51 46 37 35 29 21 13 359
162 163 170 171 175 177 168 164 154 149 142 137 129 120 118 114 109 100 98 93 88 83 80 71 66 61 57 54 50 47 45 44 38 36 36 33 26 27 25 24 19 20 4
172 169 174 178 181 175 170 169 161 151 145 138 134 128 119 113 104 98 97 91 88 84 76 69 61 55 53 49 45 46 48 45 39 37 34 25 21 17 14 16 20 16 8
180 180 176 183 178 175 177 171 162 156 150 147 141 129 120 116 110 107 99 92 88 84 74 63 54 49 46 43 42 42 42 39 35 36 34 33 27 27 23 23 22 18 17
186 186 182 180 175 178 173 165 159 157 153 147 143 141 135 132 127 118 105 96 88 81 70 63 61 53 50 46 46 41 30 28 31 35 35 40 37 33 28 27 28 28 25
185 187 186 184 182 179 173 167 166 162 162 162 155 152 150 142 133 126 117 104 95 85 74 62 53 43 36 35 32 27 27 32 37 41 42 37 37 39 45 50 49 39 29
182 187 187 187 184 178 173 172 170 169 166 163 156 154 153 148 142 135 125 115 102 88 72 58 48 39 34 33 30 28 32 37 47 58 56 57 58 60 52 42 33 27 23
182 187 190 193 186 181 177 175 173 168 165 165 162 159 156 152 147 136 127 116 103 87 74 61 57 55 42 34 32 36 44 58 76 80 73 67 58 53 45 33 26 21 23
185 187 193 193 190 183 180 178 175 171 169 167 165 163 166 160 152 144 132 121 106 92 81 78 71 59 46 42 53 65 77 81 81 79 76 71 59 52 48 41 36 24 15
189 193 193 192 192 188 183 180 176 172 171 171 169 167 166 167 157 147 131 119 106 95 94 86 72 65 63 74 89 94 89 85 79 75 70 65 62 52 51 44 34 28 20
194 192 196 191 191 189 183 179 176 174 172 173 173 171 171 169 159 152 140 129 116 112 100 89 81 81 98 105 107 102 93 80 71 67 63 63 62 60 50 45 39 28 19
190 193 195 193 189 187 185 180 175 173 174 175 174 171 169 165 163 152 144 134 127 121 107 102 100 105 111 115 114 100 85 77 68 62 65 66 66 59 50 41 36 28 25
188 187 191 192 189 188 185 181 176 173 174 175 174 171 168 164 160 158 148 139 133 131 122 105 109 115 123 119 111 100 83 76 72 76 79 73 64 54 47 40 32 29 27
187 190 188 191 191 189 184 180 175 172 172 175 174 174 171 168 162 160 151 143 137 135 123 116 100 120 132 129 118 99 84 78 77 77 84 77 63 53 46 41 37 37 37
181 183 186 188 190 188 182 174 172 171 172 171 174 174 172 169 163 164 156 152 147 143 138 132 113 111 131 139 117 105 85 74 76 83 91 80 64 52 46 43 38 37 43
181 182 182 186 188 189 183 176 175 175 174 174 173 172 173 170 167 168 162 159 154 149 143 142 150 120 103 176 176 130 136 117 74 78 84 76 66 57 50 44 36 37 47
185 185 180 181 184 182 181 178 175 173 168 170 175 174 173 173 169 169 163 167 157 154 137 131 142 163 135 87 138 166 117 182 149 117 84 86 71 64 58 43 35 35 45
190 184 179 180 181 182 183 175 174 170 167 186 178 172 166 170 170 170 171 170 161 151 140 135 129 137 147 141 101 87 94 125 157 124 110 89 73 60 56 43 34 31 38
180 181 179 177 176 179 177 185 180 172 179 186 181 172 170 171 173 172 171 170 162 151 142 136 129 128 140 150 151 136 102 86 83 118 163 20 104 75 54 37 27 23 32
179 179 178 177 179 178 178 184 182 178 180 178 178 175 172 169 171 172 173 169 163 159 152 145 133 134 131 127 127 128 129 101 125 113 101 107 273 98 63 24 20 17 26